User: anonymous   Login
Location: Unspecified
(0.0000°N, 0.0000°E)
Time: 18:57:27
(UTC+00:00)
Language:

GOES 4 - Orbit

View from above orbital plane
View from above orbital plane
View from above satellite
View from above satellite

Ground track
Ground track

The orbit data is extracted from the following two-line orbital elements,

1 11964U 80074A   17084.05455036 -.00000264 +00000-0 +00000-0 0  9991
2 11964 014.2898 335.8107 0033504 009.0479 177.0248 00.99231946094180
Epoch (UTC): 25 March 2017 01:18:33
Eccentricity: 0.0033504
inclination: 14.2898°
perigee height: 35938 km
apogee height: 36222 km
right ascension of ascending node: 335.8107°
argument of perigee: 9.0479°
revolutions per day: 0.99231946
mean anomaly at epoch: 177.0248°
orbit number at epoch: 9418

The dashed part of the orbit path shows where the satellite is in the earth's shadow,  

DLR